Home   Weather   Hammerfest   Past weeks

Flag for Norway Past Weather in Hammerfest, Norway — Yesterday and Last 2 Weeks

Now
30 °F

Sunny.


Feels Like: 27 °F
Forecast: 22 / 31 °F
Wind: 3 mph from Northeast

Location: Hammerfest

Current Time: Apr 23, 2017 at 12:17:05 pm

Latest Report: Apr 23, 2017 at 10:50 am


Visibility: 10 mi

Pressure: 29.65 "Hg

Humidity: 75%

Dew Point: 23 °F

Location of HammerfestLocation

Past Weather in Hammerfest — Graph

°F

Hammerfest Temperature Yesterday

Maximum temperature yesterday: 39 °F (at 11:50 am)
Minimum temperature yesterday: 25 °F (at 3:50 am)
Average temperature yesterday: 31 °F

High & Low Weather Summary for the Past Weeks

 TemperatureHumidityPressure
High39 °F (Apr 21, 1:20 pm)100% (Apr 11, 10:50 pm)30.27 "Hg (Apr 11, 10:50 pm)
Low19 °F (Apr 10, 2:50 am)50% (Apr 8, 8:50 pm)29.12 "Hg (Apr 21, 5:50 am)
Average28 °F74%29.78 "Hg
* Reported Apr 8 10:50 am — Apr 23 10:50 am, Hammerfest, Weather by CustomWeather, © 2017

Note: Actual official high and low records may vary slightly from our data, if they occured in-between our weather recording intervals... More about our weather records

Advertising

Hammerfest Weather History for the Previous 24 Hours

Scroll right to see more
 ConditionsComfort  
Time TempWeatherWind HumidityBarometerVisibility
10:50 am
Sun, Apr 23
30 °FSunny.3 mph75%29.65 "Hg10 mi
9:50 am32 °FSunny.3 mph69%29.65 "Hg10 mi
9:20 am32 °FChilly.2 mph64%29.65 "HgN/A
8:50 am30 °FChilly.2 mph69%29.65 "HgN/A
8:20 am28 °FSunny.5 mph74%29.65 "Hg10 mi
7:50 am28 °FSunny.2 mph74%29.62 "Hg10 mi
7:20 am27 °FChilly.3 mph80%29.62 "HgN/A
6:50 am27 °FChilly.6 mph74%29.62 "HgN/A
6:20 am28 °FChilly.8 mph69%29.62 "HgN/A
5:50 am27 °FChilly.8 mph80%29.62 "HgN/A
5:20 am27 °FChilly.7 mph80%29.62 "HgN/A
4:50 am25 °FCold.9 mph80%29.62 "HgN/A
4:20 am25 °FCold.12 mph80%29.62 "HgN/A
3:50 am25 °FSunny.8 mph86%29.62 "Hg10 mi
3:20 am27 °FClear.5 mph80%29.62 "Hg10 mi
2:50 am27 °FClear.10 mph80%29.62 "Hg10 mi
1:50 am28 °FClear.8 mph74%29.59 "Hg10 mi
1:20 am27 °FChilly.8 mph80%29.59 "HgN/A
12:50 am27 °FPassing clouds.12 mph80%29.59 "HgN/A
12:20 am28 °FClear.17 mph74%29.59 "Hg10 mi
11:50 pm
Sat, Apr 22
28 °FClear.10 mph74%29.59 "Hg10 mi
10:50 pm30 °FClear.15 mph69%29.56 "Hg10 mi
10:20 pm30 °FClear.13 mph75%29.56 "Hg10 mi
9:50 pm30 °FChilly.15 mph69%29.56 "HgN/A
9:20 pm30 °FChilly.17 mph69%29.56 "HgN/A
8:20 pm30 °FChilly.16 mph75%29.53 "HgN/A
7:50 pm30 °FPassing clouds.14 mph75%29.53 "HgN/A
7:20 pm32 °FPassing clouds.15 mph80%29.53 "HgN/A
6:50 pm32 °FScattered showers. Scattered clouds.12 mph87%29.53 "HgN/A
5:50 pm34 °FSnow flurries. Broken clouds.10 mph81%29.50 "Hg3 mi
4:50 pm36 °FScattered clouds.9 mph70%29.50 "HgN/A
4:20 pm34 °FPassing clouds.9 mph75%29.50 "HgN/A
3:50 pm34 °FPartly sunny.7 mph81%29.50 "HgN/A
3:20 pm36 °FPartly sunny.3 mph75%29.50 "HgN/A
2:50 pm36 °FScattered clouds.6 mph75%29.50 "HgN/A
1:50 pm36 °FScattered clouds.7 mph70%29.47 "HgN/A
12:50 pm37 °FSunny.6 mph65%29.47 "Hg10 mi
Weather by CustomWeather, © 2017

See weather overviewHow to use our weather pages